START_TIME,STEP,MOV.,A46,t_acc.,A13,t_acc.,M47,t_acc.,A17,t_acc.,A28,t_acc.,M38,t_acc.
1979-07-05 18:00:26.220 ,0,1,,0,21.,4.8,1.,4.8,,0,0.,4.8,7.,4.8
1979-07-05 18:00:31.020 ,0,1,,0,12.,4.8,0.,4.8,,0,0.,4.8,5.,4.8
1979-07-05 18:00:35.820 ,0,1,,0,12.,4.8,1.,4.8,,0,1.,4.8,4.,4.8
1979-07-05 18:00:40.620 ,0,1,,0,0.,4.8,0.,4.8,,0,0.,4.8,8.,4.8
1979-07-05 18:00:45.420 ,0,1,,0,0.,4.8,0.,4.8,,0,0.,4.8,6.,4.8
1979-07-05 18:00:50.220 ,4,1,,0,0.,4.8,0.,4.8,,0,0.,4.8,4.,4.8
1979-07-05 18:00:55.020 ,4,1,,0,0.,4.8,0.,4.8,,0,0.,4.8,3.,4.8
1979-07-05 18:00:59.820 ,4,1,,0,4.,4.8,0.,4.8,,0,0.,4.8,7.,4.8
1979-07-05 18:01:04.620 ,4,1,,0,32.,4.8,2.,4.8,,0,0.,4.8,13.,4.8
1979-07-05 18:01:09.420 ,4,1,,0,22.,4.8,1.,4.8,,0,0.,4.8,11.,4.8
1979-07-05 18:01:14.220 ,7,1,,0,10.,4.8,0.,4.8,,0,0.,4.8,5.,4.8
1979-07-05 18:01:19.020 ,7,1,,0,9.,4.8,0.,4.8,,0,0.,4.8,0.,4.8
1979-07-05 18:01:23.820 ,7,1,,0,8.,4.8,1.,4.8,,0,0.,4.8,1.,4.8
1979-07-05 18:01:28.620 ,7,1,,0,0.,4.8,0.,4.8,,0,0.,4.8,0.,4.8
1979-07-05 18:01:33.420 ,7,1,,0,0.,4.8,0.,4.8,,0,0.,4.8,0.,4.8
1979-07-05 18:01:38.220 ,3,1,,0,0.,4.8,0.,4.8,,0,0.,4.8,5.,4.8
1979-07-05 18:01:43.020 ,3,1,,0,0.,4.8,0.,4.8,,0,0.,4.8,4.,4.8
1979-07-05 18:01:47.820 ,3,1,,0,4.,4.8,0.,4.8,,0,0.,4.8,5.,4.8
1979-07-05 18:01:52.620 ,3,1,,0,23.,4.8,1.,4.8,,0,0.,4.8,8.,4.8
1979-07-05 18:01:57.420 ,3,1,,0,26.,4.8,4.,4.8,,0,0.,4.8,6.,4.8
1979-07-05 18:02:02.220 ,0,1,,0,22.,4.8,2.,4.8,,0,0.,4.8,5.,4.8
1979-07-05 18:02:07.020 ,0,1,,0,13.,4.8,0.,4.8,,0,0.,4.8,4.,4.8
1979-07-05 18:02:11.820 ,0,1,,0,5.,4.8,0.,4.8,,0,0.,4.8,2.,4.8
1979-07-05 18:02:16.620 ,0,1,,0,0.,4.8,0.,4.8,,0,0.,4.8,12.,4.8
1979-07-05 18:02:21.420 ,0,1,,0,0.,4.8,0.,4.8,,0,0.,4.8,12.,4.8
1979-07-05 18:02:26.220 ,4,1,,0,0.,4.8,0.,4.8,,0,1.,4.8,7.,4.8
1979-07-05 18:02:31.020 ,4,1,,0,0.,4.8,0.,4.8,,0,0.,4.8,4.,4.8
1979-07-05 18:02:35.820 ,4,1,,0,2.,4.8,0.,4.8,,0,0.,4.8,4.,4.8
1979-07-05 18:02:40.620 ,4,1,,0,27.,4.8,1.,4.8,,0,0.,4.8,20.,4.8
1979-07-05 18:02:45.420 ,4,1,,0,21.,4.8,0.,4.8,,0,0.,4.8,14.,4.8
1979-07-05 18:02:50.220 ,7,1,,0,15.,4.8,0.,4.8,,0,0.,4.8,4.,4.8
1979-07-05 18:02:55.020 ,7,1,,0,13.,4.8,1.,4.8,,0,0.,4.8,4.,4.8
1979-07-05 18:02:59.820 ,7,1,,0,16.,4.8,0.,4.8,,0,0.,4.8,4.,4.8
1979-07-05 18:03:04.620 ,7,1,,0,0.,4.8,0.,4.8,,0,0.,4.8,0.,4.8
1979-07-05 18:03:09.420 ,7,1,,0,0.,4.8,0.,4.8,,0,0.,4.8,0.,4.8
1979-07-05 18:03:14.220 ,3,1,,0,0.,4.8,0.,4.8,,0,0.,4.8,6.,4.8
1979-07-05 18:03:19.020 ,3,1,,0,0.,4.8,1.,4.8,,0,0.,4.8,1.,4.8
1979-07-05 18:03:23.820 ,3,1,,0,3.,4.8,0.,4.8,,0,0.,4.8,5.,4.8
1979-07-05 18:03:28.620 ,3,1,,0,14.,4.8,0.,4.8,,0,0.,4.8,11.,4.8
1979-07-05 18:03:33.420 ,3,1,,0,27.,4.8,2.,4.8,,0,0.,4.8,16.,4.8
1979-07-05 18:03:38.220 ,0,1,,0,27.,4.8,2.,4.8,,0,0.,4.8,9.,4.8
1979-07-05 18:03:43.020 ,0,1,,0,15.,4.8,1.,4.8,,0,0.,4.8,8.,4.8
1979-07-05 18:03:47.820 ,0,1,,0,7.,4.8,0.,4.8,,0,0.,4.8,4.,4.8
1979-07-05 18:03:52.620 ,0,1,,0,0.,4.8,0.,4.8,,0,0.,4.8,7.,4.8
1979-07-05 18:03:57.420 ,0,1,,0,0.,4.8,0.,4.8,,0,0.,4.8,8.,4.8
1979-07-05 18:04:02.220 ,4,1,,0,0.,4.8,0.,4.8,,0,0.,4.8,6.,4.8
1979-07-05 18:04:07.020 ,4,1,,0,0.,4.8,0.,4.8,,0,0.,4.8,2.,4.8
1979-07-05 18:04:11.820 ,4,1,,0,2.,4.8,0.,4.8,,0,0.,4.8,5.,4.8
1979-07-05 18:04:16.620 ,4,1,,0,30.,4.8,2.,4.8,,0,0.,4.8,8.,4.8
1979-07-05 18:04:21.420 ,4,1,,0,20.,4.8,0.,4.8,,0,0.,4.8,13.,4.8
1979-07-05 18:04:26.220 ,7,1,,0,8.,4.8,1.,4.8,,0,0.,4.8,3.,4.8
1979-07-05 18:04:31.020 ,7,1,,0,11.,4.8,0.,4.8,,0,0.,4.8,3.,4.8
1979-07-05 18:04:35.820 ,7,1,,0,8.,4.8,0.,4.8,,0,0.,4.8,4.,4.8
1979-07-05 18:04:40.620 ,7,1,,0,0.,4.8,0.,4.8,,0,0.,4.8,0.,4.8
1979-07-05 18:04:45.420 ,7,1,,0,0.,4.8,0.,4.8,,0,0.,4.8,0.,4.8
1979-07-05 18:04:50.220 ,3,1,,0,0.,4.8,0.,4.8,,0,0.,4.8,4.,4.8
1979-07-05 18:04:55.020 ,3,1,,0,0.,4.8,0.,4.8,,0,0.,4.8,7.,4.8
1979-07-05 18:04:59.820 ,3,1,,0,3.,4.8,0.,4.8,,0,0.,4.8,2.,4.8
1979-07-05 18:05:04.620 ,3,1,,0,20.,4.8,1.,4.8,,0,0.,4.8,11.,4.8
1979-07-05 18:05:09.420 ,3,1,,0,33.,4.8,5.,4.8,,0,0.,4.8,15.,4.8
1979-07-05 18:05:14.220 ,0,1,,0,24.,4.8,1.,4.8,,0,0.,4.8,10.,4.8
1979-07-05 18:05:19.020 ,0,1,,0,12.,4.8,1.,4.8,,0,0.,4.8,5.,4.8
1979-07-05 18:05:23.820 ,0,1,,0,8.,4.8,1.,4.8,,0,0.,4.8,3.,4.8
1979-07-05 18:05:28.620 ,0,1,,0,0.,4.8,0.,4.8,,0,0.,4.8,8.,4.8
1979-07-05 18:05:33.420 ,0,1,,0,0.,4.8,0.,4.8,,0,0.,4.8,20.,4.8
1979-07-05 18:05:38.220 ,0,0,,0,0.,4.8,0.,4.8,,0,0.,4.8,7.,4.8
1979-07-05 18:05:43.020 ,0,0,,0,0.,4.8,0.,4.8,,0,0.,4.8,3.,4.8
1979-07-05 18:05:47.820 ,0,0,,0,4.,4.8,0.,4.8,,0,0.,4.8,9.,4.8
1979-07-05 18:05:52.620 ,0,0,,0,34.,4.8,4.,4.8,,0,0.,4.8,15.,4.8
1979-07-05 18:05:57.420 ,0,0,,0,25.,4.8,3.,4.8,,0,0.,4.8,14.,4.8
1979-07-05 18:06:02.220 ,0,0,,0,15.,4.8,0.,4.8,,0,0.,4.8,4.,4.8
1979-07-05 18:06:07.020 ,0,0,,0,13.,4.8,0.,4.8,,0,0.,4.8,5.,4.8
1979-07-05 18:06:11.820 ,0,0,,0,12.,4.8,0.,4.8,,0,0.,4.8,7.,4.8
1979-07-05 18:06:16.620 ,0,0,,0,0.,4.8,0.,4.8,,0,0.,4.8,0.,4.8
1979-07-05 18:06:21.420 ,0,0,,0,0.,4.8,0.,4.8,,0,0.,4.8,0.,4.8
1979-07-05 18:06:26.220 ,5,0,,0,0.,4.8,0.,4.8,,0,0.,4.8,3.,4.8
1979-07-05 18:06:31.020 ,5,0,,0,0.,4.8,0.,4.8,,0,1.,4.8,2.,4.8
1979-07-05 18:06:35.820 ,5,0,,0,2.,4.8,0.,4.8,,0,0.,4.8,2.,4.8
1979-07-05 18:06:40.620 ,5,0,,0,4.,4.8,0.,4.8,,0,0.,4.8,2.,4.8
1979-07-05 18:06:45.420 ,5,0,,0,16.,4.8,0.,4.8,,0,0.,4.8,1.,4.8
1979-07-05 18:06:50.220 ,5,0,,0,12.,4.8,1.,4.8,,0,0.,4.8,2.,4.8
1979-07-05 18:06:55.020 ,5,0,,0,9.,4.8,0.,4.8,,0,0.,4.8,3.,4.8
1979-07-05 18:06:59.820 ,5,0,,0,12.,4.8,0.,4.8,,0,0.,4.8,4.,4.8
1979-07-05 18:07:04.620 ,5,0,,0,0.,4.8,0.,4.8,,0,0.,4.8,5.,4.8
1979-07-05 18:07:09.420 ,5,0,,0,0.,4.8,0.,4.8,,0,0.,4.8,6.,4.8
1979-07-05 18:07:14.220 ,4,0,,0,0.,4.8,0.,4.8,,0,0.,4.8,4.,4.8
1979-07-05 18:07:19.020 ,4,0,,0,0.,4.8,0.,4.8,,0,0.,4.8,9.,4.8
1979-07-05 18:07:23.820 ,4,0,,0,4.,4.8,1.,4.8,,0,0.,4.8,12.,4.8
1979-07-05 18:07:28.620 ,4,0,,0,19.,4.8,0.,4.8,,0,0.,4.8,8.,4.8
1979-07-05 18:07:33.420 ,4,0,,0,22.,4.8,3.,4.8,,0,0.,4.8,11.,4.8
1979-07-05 18:07:38.220 ,4,0,,0,22.,4.8,2.,4.8,,0,0.,4.8,10.,4.8
1979-07-05 18:07:43.020 ,4,0,,0,19.,4.8,1.,4.8,,0,0.,4.8,9.,4.8
1979-07-05 18:07:47.820 ,4,0,,0,20.,4.8,1.,4.8,,0,0.,4.8,10.,4.8
1979-07-05 18:07:52.620 ,4,0,,0,0.,4.8,0.,4.8,,0,0.,4.8,5.,4.8
1979-07-05 18:07:57.420 ,4,0,,0,0.,4.8,0.,4.8,,0,0.,4.8,9.,4.8
1979-07-05 18:08:02.220 ,3,0,,0,0.,4.8,0.,4.8,,0,0.,4.8,6.,4.8
1979-07-05 18:08:07.020 ,3,0,,0,0.,4.8,0.,4.8,,0,0.,4.8,12.,4.8
1979-07-05 18:08:11.820 ,3,0,,0,4.,4.8,2.,4.8,,0,0.,4.8,16.,4.8
1979-07-05 18:08:16.620 ,3,0,,0,34.,4.8,6.,4.8,,0,0.,4.8,13.,4.8
1979-07-05 18:08:21.420 ,3,0,,0,35.,4.8,1.,4.8,,0,0.,4.8,16.,4.8
1979-07-05 18:08:26.220 ,3,0,,0,33.,4.8,3.,4.8,,0,0.,4.8,17.,4.8
1979-07-05 18:08:31.020 ,3,0,,0,43.,4.8,3.,4.8,,0,1.,4.8,15.,4.8
1979-07-05 18:08:35.820 ,3,0,,0,29.,4.8,7.,4.8,,0,0.,4.8,12.,4.8
1979-07-05 18:08:40.620 ,3,0,,0,0.,4.8,0.,4.8,,0,0.,4.8,24.,4.8
1979-07-05 18:08:45.420 ,3,0,,0,0.,4.8,0.,4.8,,0,0.,4.8,24.,4.8
1979-07-05 18:08:50.220 ,2,0,,0,0.,4.8,0.,4.8,,0,0.,4.8,14.,4.8
1979-07-05 18:08:55.020 ,2,0,,0,0.,4.8,1.,4.8,,0,0.,4.8,13.,4.8
1979-07-05 18:08:59.820 ,2,0,,0,2.,4.8,0.,4.8,,0,0.,4.8,7.,4.8
1979-07-05 18:09:04.620 ,2,0,,0,18.,4.8,0.,4.8,,0,0.,4.8,3.,4.8
1979-07-05 18:09:09.420 ,2,0,,0,21.,4.8,1.,4.8,,0,0.,4.8,4.,4.8
1979-07-05 18:09:14.220 ,2,0,,0,18.,4.8,2.,4.8,,0,0.,4.8,7.,4.8
1979-07-05 18:09:19.020 ,2,0,,0,12.,4.8,1.,4.8,,0,0.,4.8,3.,4.8
1979-07-05 18:09:23.820 ,2,0,,0,12.,4.8,1.,4.8,,0,0.,4.8,9.,4.8
1979-07-05 18:09:28.620 ,2,0,,0,0.,4.8,0.,4.8,,0,0.,4.8,8.,4.8
1979-07-05 18:09:33.420 ,2,0,,0,0.,4.8,0.,4.8,,0,1.,4.8,6.,4.8
1979-07-05 18:09:38.220 ,1,0,,0,0.,4.8,0.,4.8,,0,0.,4.8,4.,4.8
1979-07-05 18:09:43.020 ,1,0,,0,0.,4.8,0.,4.8,,0,0.,4.8,5.,4.8
1979-07-05 18:09:47.820 ,1,0,,0,1.,4.8,1.,4.8,,0,0.,4.8,7.,4.8
1979-07-05 18:09:52.620 ,1,0,,0,15.,4.8,1.,4.8,,0,0.,4.8,8.,4.8
1979-07-05 18:09:57.420 ,1,0,,0,6.,4.8,0.,4.8,,0,0.,4.8,10.,4.8
1979-07-05 18:10:02.220 ,1,0,,0,7.,4.8,0.,4.8,,0,0.,4.8,2.,4.8
1979-07-05 18:10:07.020 ,1,0,,0,6.,4.8,1.,4.8,,0,0.,4.8,5.,4.8
1979-07-05 18:10:11.820 ,1,0,,0,11.,4.8,0.,4.8,,0,0.,4.8,6.,4.8
1979-07-05 18:10:16.620 ,1,0,,0,0.,4.8,0.,4.8,,0,0.,4.8,1.,4.8
1979-07-05 18:10:21.420 ,1,0,,0,0.,4.8,0.,4.8,,0,0.,4.8,2.,4.8
1979-07-05 18:10:26.220 ,0,0,,0,0.,4.8,0.,4.8,,0,0.,4.8,5.,4.8
1979-07-05 18:10:31.020 ,0,0,,0,0.,4.8,0.,4.8,,0,0.,4.8,5.,4.8
1979-07-05 18:10:35.820 ,0,0,,0,2.,4.8,0.,4.8,,0,0.,4.8,9.,4.8
1979-07-05 18:10:40.620 ,0,0,,0,21.,4.8,0.,4.8,,0,0.,4.8,8.,4.8
1979-07-05 18:10:45.420 ,0,0,,0,31.,4.8,4.,4.8,,0,0.,4.8,4.,4.8
1979-07-05 18:10:50.220 ,0,0,,0,15.,4.8,1.,4.8,,0,0.,4.8,10.,4.8
1979-07-05 18:10:55.020 ,0,0,,0,25.,4.8,2.,4.8,,0,0.,4.8,11.,4.8
1979-07-05 18:10:59.820 ,0,0,,0,21.,4.8,3.,4.8,,0,0.,4.8,7.,4.8
1979-07-05 18:11:04.620 ,0,0,,0,0.,4.8,0.,4.8,,0,0.,4.8,10.,4.8
1979-07-05 18:11:09.420 ,0,0,,0,0.,4.8,0.,4.8,,0,0.,4.8,9.,4.8
1979-07-05 18:11:14.220 ,0,0,,0,0.,4.8,0.,4.8,,0,0.,4.8,12.,4.8
1979-07-05 18:11:19.020 ,0,0,,0,0.,4.8,0.,4.8,,0,0.,4.8,12.,4.8
1979-07-05 18:11:23.820 ,0,0,,0,3.,4.8,1.,4.8,,0,0.,4.8,6.,4.8
1979-07-05 18:11:28.620 ,0,0,,0,18.,4.8,1.,4.8,,0,0.,4.8,15.,4.8
1979-07-05 18:11:33.420 ,0,0,,0,16.,4.8,3.,4.8,,0,0.,4.8,6.,4.8
1979-07-05 18:11:38.220 ,0,0,,0,13.,4.8,1.,4.8,,0,0.,4.8,6.,4.8
1979-07-05 18:11:43.020 ,0,0,,0,14.,4.8,1.,4.8,,0,0.,4.8,8.,4.8
1979-07-05 18:11:47.820 ,0,0,,0,12.,4.8,2.,4.8,,0,0.,4.8,14.,4.8
1979-07-05 18:11:52.620 ,0,0,,0,0.,4.8,0.,4.8,,0,0.,4.8,10.,4.8
1979-07-05 18:11:57.420 ,0,0,,0,0.,4.8,0.,4.8,,0,0.,4.8,12.,4.8
1979-07-05 18:12:02.220 ,1,0,,0,0.,4.8,0.,4.8,,0,0.,4.8,15.,4.8
1979-07-05 18:12:07.020 ,1,0,,0,0.,4.8,0.,4.8,,0,0.,4.8,10.,4.8
1979-07-05 18:12:11.820 ,1,0,,0,0.,4.8,0.,4.8,,0,0.,4.8,5.,4.8
1979-07-05 18:12:16.620 ,1,0,,0,10.,4.8,0.,4.8,,0,0.,4.8,1.,4.8
1979-07-05 18:12:21.420 ,1,0,,0,8.,4.8,0.,4.8,,0,0.,4.8,2.,4.8
1979-07-05 18:12:26.220 ,1,0,,0,9.,4.8,0.,4.8,,0,0.,4.8,5.,4.8
1979-07-05 18:12:31.020 ,1,0,,0,7.,4.8,0.,4.8,,0,0.,4.8,2.,4.8
1979-07-05 18:12:35.820 ,1,0,,0,5.,4.8,0.,4.8,,0,0.,4.8,3.,4.8
1979-07-05 18:12:40.620 ,1,0,,0,0.,4.8,0.,4.8,,0,0.,4.8,1.,4.8
1979-07-05 18:12:45.420 ,1,0,,0,0.,4.8,0.,4.8,,0,0.,4.8,1.,4.8
1979-07-05 18:12:50.220 ,2,0,,0,0.,4.8,0.,4.8,,0,0.,4.8,7.,4.8
1979-07-05 18:12:55.020 ,2,0,,0,1.,4.8,0.,4.8,,0,0.,4.8,5.,4.8
1979-07-05 18:12:59.820 ,2,0,,0,4.,4.8,1.,4.8,,0,0.,4.8,6.,4.8
1979-07-05 18:13:04.620 ,2,0,,0,23.,4.8,4.,4.8,,0,1.,4.8,7.,4.8
1979-07-05 18:13:09.420 ,2,0,,0,20.,4.8,0.,4.8,,0,0.,4.8,10.,4.8
1979-07-05 18:13:14.220 ,2,0,,0,16.,4.8,1.,4.8,,0,0.,4.8,9.,4.8
1979-07-05 18:13:19.020 ,2,0,,0,15.,4.8,1.,4.8,,0,0.,4.8,6.,4.8
1979-07-05 18:13:23.820 ,2,0,,0,12.,4.8,0.,4.8,,0,0.,4.8,8.,4.8
1979-07-05 18:13:28.620 ,2,0,,0,0.,4.8,0.,4.8,,0,0.,4.8,7.,4.8
1979-07-05 18:13:33.420 ,2,0,,0,0.,4.8,0.,4.8,,0,0.,4.8,2.,4.8
1979-07-05 18:13:38.220 ,3,0,,0,0.,4.8,0.,4.8,,0,0.,4.8,9.,4.8
1979-07-05 18:13:43.020 ,3,0,,0,0.,4.8,0.,4.8,,0,0.,4.8,10.,4.8
1979-07-05 18:13:47.820 ,3,0,,0,6.,4.8,0.,4.8,,0,0.,4.8,23.,4.8
1979-07-05 18:13:52.620 ,3,0,,0,37.,4.8,0.,4.8,,0,0.,4.8,17.,4.8
1979-07-05 18:13:57.420 ,3,0,,0,40.,4.8,2.,4.8,,0,0.,4.8,11.,4.8
1979-07-05 18:14:02.220 ,3,0,,0,38.,4.8,0.,4.8,,0,0.,4.8,17.,4.8
1979-07-05 18:14:07.020 ,3,0,,0,24.,4.8,1.,4.8,,0,0.,4.8,27.,4.8
1979-07-05 18:14:11.820 ,3,0,,0,30.,4.8,3.,4.8,,0,0.,4.8,11.,4.8
1979-07-05 18:14:16.620 ,3,0,,0,0.,4.8,0.,4.8,,0,0.,4.8,21.,4.8
1979-07-05 18:14:21.420 ,3,0,,0,0.,4.8,0.,4.8,,0,0.,4.8,19.,4.8
1979-07-05 18:14:26.220 ,4,0,,0,1.,4.8,0.,4.8,,0,0.,4.8,13.,4.8
1979-07-05 18:14:31.020 ,4,0,,0,0.,4.8,0.,4.8,,0,0.,4.8,14.,4.8
1979-07-05 18:14:35.820 ,4,0,,0,3.,4.8,1.,4.8,,0,0.,4.8,11.,4.8
1979-07-05 18:14:40.620 ,4,0,,0,17.,4.8,2.,4.8,,0,0.,4.8,13.,4.8
1979-07-05 18:14:45.420 ,4,0,,0,27.,4.8,2.,4.8,,0,0.,4.8,15.,4.8
1979-07-05 18:14:50.220 ,4,0,,0,23.,4.8,0.,4.8,,0,0.,4.8,9.,4.8
1979-07-05 18:14:55.020 ,4,0,,0,17.,4.8,0.,4.8,,0,0.,4.8,9.,4.8
1979-07-05 18:14:59.820 ,4,0,,0,22.,4.8,0.,4.8,,0,0.,4.8,19.,4.8
1979-07-05 18:15:04.620 ,4,0,,0,0.,4.8,0.,4.8,,0,0.,4.8,6.,4.8
1979-07-05 18:15:09.420 ,4,0,,0,0.,4.8,0.,4.8,,0,0.,4.8,14.,4.8
1979-07-05 18:15:14.220 ,5,0,,0,0.,4.8,0.,4.8,,0,0.,4.8,7.,4.8
1979-07-05 18:15:19.020 ,5,0,,0,0.,4.8,0.,4.8,,0,0.,4.8,10.,4.8
1979-07-05 18:15:23.820 ,5,0,,0,2.,4.8,1.,4.8,,0,0.,4.8,5.,4.8
1979-07-05 18:15:28.620 ,5,0,,0,9.,4.8,0.,4.8,,0,0.,4.8,3.,4.8
1979-07-05 18:15:33.420 ,5,0,,0,13.,4.8,0.,4.8,,0,0.,4.8,7.,4.8
1979-07-05 18:15:38.220 ,5,0,,0,16.,4.8,0.,4.8,,0,0.,4.8,2.,4.8
1979-07-05 18:15:43.020 ,5,0,,0,12.,4.8,1.,4.8,,0,0.,4.8,2.,4.8
1979-07-05 18:15:47.820 ,5,0,,0,8.,4.8,0.,4.8,,0,0.,4.8,2.,4.8
1979-07-05 18:15:52.620 ,5,0,,0,0.,4.8,0.,4.8,,0,0.,4.8,3.,4.8
1979-07-05 18:15:57.420 ,5,0,,0,0.,4.8,0.,4.8,,0,0.,4.8,6.,4.8
1979-07-05 18:16:02.220 ,6,0,,0,0.,4.8,0.,4.8,,0,0.,4.8,8.,4.8
1979-07-05 18:16:07.020 ,6,0,,0,0.,4.8,0.,4.8,,0,0.,4.8,7.,4.8
1979-07-05 18:16:11.820 ,6,0,,0,4.,4.8,0.,4.8,,0,0.,4.8,4.,4.8
1979-07-05 18:16:16.620 ,6,0,,0,13.,4.8,2.,4.8,,0,0.,4.8,6.,4.8
1979-07-05 18:16:21.420 ,6,0,,0,13.,4.8,0.,4.8,,0,0.,4.8,4.,4.8
1979-07-05 18:16:26.220 ,6,0,,0,22.,4.8,0.,4.8,,0,0.,4.8,2.,4.8
1979-07-05 18:16:31.020 ,6,0,,0,16.,4.8,0.,4.8,,0,0.,4.8,5.,4.8
1979-07-05 18:16:35.820 ,6,0,,0,16.,4.8,0.,4.8,,0,0.,4.8,9.,4.8
1979-07-05 18:16:40.620 ,6,0,,0,0.,4.8,0.,4.8,,0,0.,4.8,4.,4.8
1979-07-05 18:16:45.420 ,6,0,,0,0.,4.8,0.,4.8,,0,0.,4.8,3.,4.8
1979-07-05 18:16:50.220 ,7,0,,0,0.,4.8,0.,4.8,,0,0.,4.8,9.,4.8
1979-07-05 18:16:55.020 ,7,0,,0,0.,4.8,0.,4.8,,0,0.,4.8,3.,4.8
1979-07-05 18:16:59.820 ,7,0,,0,1.,4.8,0.,4.8,,0,0.,4.8,0.,4.8
1979-07-05 18:17:04.620 ,7,0,,0,15.,4.8,0.,4.8,,0,0.,4.8,1.,4.8
1979-07-05 18:17:09.420 ,7,0,,0,11.,4.8,0.,4.8,,0,0.,4.8,0.,4.8
1979-07-05 18:17:14.220 ,7,0,,0,18.,4.8,0.,4.8,,0,0.,4.8,0.,4.8
1979-07-05 18:17:19.020 ,7,0,,0,19.,4.8,0.,4.8,,0,0.,4.8,0.,4.8
1979-07-05 18:17:23.820 ,7,0,,0,9.,4.8,0.,4.8,,0,0.,4.8,0.,4.8
1979-07-05 18:17:28.620 ,7,0,,0,0.,4.8,0.,4.8,,0,0.,4.8,0.,4.8
1979-07-05 18:17:33.420 ,7,0,,0,0.,4.8,0.,4.8,,0,0.,4.8,0.,4.8
1979-07-05 18:17:38.220 ,7,0,,0,0.,4.8,0.,4.8,,0,0.,4.8,0.,4.8
1979-07-05 18:17:43.020 ,7,0,,0,0.,4.8,0.,4.8,,0,0.,4.8,0.,4.8
1979-07-05 18:17:47.820 ,7,0,,0,1.,4.8,0.,4.8,,0,0.,4.8,0.,4.8
1979-07-05 18:17:52.620 ,7,0,,0,18.,4.8,0.,4.8,,0,0.,4.8,0.,4.8
1979-07-05 18:17:57.420 ,7,0,,0,14.,4.8,0.,4.8,,0,0.,4.8,0.,4.8
1979-07-05 18:18:02.220 ,7,0,,0,8.,4.8,0.,4.8,,0,0.,4.8,0.,4.8
1979-07-05 18:18:07.020 ,7,0,,0,14.,4.8,0.,4.8,,0,0.,4.8,0.,4.8
1979-07-05 18:18:11.820 ,7,0,,0,15.,4.8,0.,4.8,,0,0.,4.8,0.,4.8
1979-07-05 18:18:16.620 ,7,0,,0,0.,4.8,0.,4.8,,0,0.,4.8,0.,4.8
1979-07-05 18:18:21.420 ,7,0,,0,0.,4.8,0.,4.8,,0,0.,4.8,0.,4.8
1979-07-05 18:18:26.220 ,6,0,,0,0.,4.8,0.,4.8,,0,0.,4.8,0.,4.8
1979-07-05 18:18:31.020 ,6,0,,0,0.,4.8,0.,4.8,,0,0.,4.8,0.,4.8
1979-07-05 18:18:35.820 ,6,0,,0,3.,4.8,0.,4.8,,0,0.,4.8,7.,4.8
1979-07-05 18:18:40.620 ,6,0,,0,15.,4.8,2.,4.8,,0,0.,4.8,10.,4.8
1979-07-05 18:18:45.420 ,6,0,,0,13.,4.8,1.,4.8,,0,0.,4.8,5.,4.8
1979-07-05 18:18:50.220 ,6,0,,0,9.,4.8,0.,4.8,,0,0.,4.8,6.,4.8
1979-07-05 18:18:55.020 ,6,0,,0,9.,4.8,0.,4.8,,0,0.,4.8,1.,4.8
1979-07-05 18:18:59.820 ,6,0,,0,16.,4.8,1.,4.8,,0,0.,4.8,5.,4.8
1979-07-05 18:19:04.620 ,6,0,,0,0.,4.8,0.,4.8,,0,0.,4.8,4.,4.8
1979-07-05 18:19:09.420 ,6,0,,0,0.,4.8,0.,4.8,,0,0.,4.8,5.,4.8
1979-07-05 18:19:14.220 ,5,0,,0,0.,4.8,0.,4.8,,0,0.,4.8,4.,4.8
1979-07-05 18:19:19.020 ,5,0,,0,0.,4.8,0.,4.8,,0,0.,4.8,2.,4.8
1979-07-05 18:19:23.820 ,5,0,,0,4.,4.8,0.,4.8,,0,0.,4.8,3.,4.8
1979-07-05 18:19:28.620 ,5,0,,0,17.,4.8,1.,4.8,,0,0.,4.8,2.,4.8
1979-07-05 18:19:33.420 ,5,0,,0,21.,4.8,3.,4.8,,0,0.,4.8,12.,4.8
1979-07-05 18:19:38.220 ,5,0,,0,11.,4.8,0.,4.8,,0,0.,4.8,5.,4.8
1979-07-05 18:19:43.020 ,5,0,,0,21.,4.8,1.,4.8,,0,0.,4.8,11.,4.8
1979-07-05 18:19:47.820 ,5,0,,0,11.,4.8,0.,4.8,,0,0.,4.8,8.,4.8
1979-07-05 18:19:52.620 ,5,0,,0,0.,4.8,0.,4.8,,0,0.,4.8,5.,4.8
1979-07-05 18:19:57.420 ,5,0,,0,0.,4.8,0.,4.8,,0,0.,4.8,4.,4.8
1979-07-05 18:20:02.220 ,4,0,,0,0.,4.8,0.,4.8,,0,0.,4.8,8.,4.8
1979-07-05 18:20:07.020 ,4,0,,0,0.,4.8,0.,4.8,,0,1.,4.8,6.,4.8
1979-07-05 18:20:11.820 ,4,0,,0,5.,4.8,0.,4.8,,0,0.,4.8,12.,4.8
1979-07-05 18:20:16.620 ,4,0,,0,15.,4.8,0.,4.8,,0,0.,4.8,18.,4.8
1979-07-05 18:20:21.420 ,4,0,,0,24.,4.8,3.,4.8,,0,0.,4.8,10.,4.8
1979-07-05 18:20:26.220 ,4,0,,0,30.,4.8,0.,4.8,,0,0.,4.8,14.,4.8
1979-07-05 18:20:31.020 ,4,0,,0,20.,4.8,1.,4.8,,0,0.,4.8,17.,4.8
1979-07-05 18:20:35.820 ,4,0,,0,25.,4.8,1.,4.8,,0,0.,4.8,12.,4.8
1979-07-05 18:20:40.620 ,4,0,,0,0.,4.8,0.,4.8,,0,0.,4.8,9.,4.8
1979-07-05 18:20:45.420 ,4,0,,0,0.,4.8,0.,4.8,,0,0.,4.8,11.,4.8
1979-07-05 18:20:50.220 ,3,0,,0,0.,4.8,0.,4.8,,0,0.,4.8,14.,4.8
1979-07-05 18:20:55.020 ,3,0,,0,0.,4.8,0.,4.8,,0,0.,4.8,14.,4.8
1979-07-05 18:20:59.820 ,3,0,,0,4.,4.8,1.,4.8,,0,0.,4.8,21.,4.8
1979-07-05 18:21:04.620 ,3,0,,0,31.,4.8,0.,4.8,,0,0.,4.8,17.,4.8
1979-07-05 18:21:09.420 ,3,0,,0,33.,4.8,2.,4.8,,0,0.,4.8,13.,4.8
1979-07-05 18:21:14.220 ,3,0,,0,34.,4.8,3.,4.8,,0,0.,4.8,17.,4.8
1979-07-05 18:21:19.020 ,3,0,,0,27.,4.8,3.,4.8,,0,0.,4.8,12.,4.8
1979-07-05 18:21:23.820 ,3,0,,0,29.,4.8,1.,4.8,,0,0.,4.8,17.,4.8
1979-07-05 18:21:28.620 ,3,0,,0,0.,4.8,0.,4.8,,0,0.,4.8,14.,4.8
1979-07-05 18:21:33.420 ,3,0,,0,0.,4.8,1.,4.8,,0,0.,4.8,15.,4.8
1979-07-05 18:21:38.220 ,2,0,,0,0.,4.8,0.,4.8,,0,0.,4.8,15.,4.8
1979-07-05 18:21:43.020 ,2,0,,0,0.,4.8,0.,4.8,,0,0.,4.8,7.,4.8
1979-07-05 18:21:47.820 ,2,0,,0,2.,4.8,1.,4.8,,0,0.,4.8,2.,4.8
1979-07-05 18:21:52.620 ,2,0,,0,16.,4.8,0.,4.8,,0,0.,4.8,12.,4.8
1979-07-05 18:21:57.420 ,2,0,,0,13.,4.8,0.,4.8,,0,0.,4.8,6.,4.8
1979-07-05 18:22:02.220 ,2,0,,0,18.,4.8,1.,4.8,,0,0.,4.8,7.,4.8
1979-07-05 18:22:07.020 ,2,0,,0,9.,4.8,0.,4.8,,0,0.,4.8,8.,4.8
1979-07-05 18:22:11.820 ,2,0,,0,9.,4.8,0.,4.8,,0,0.,4.8,5.,4.8
1979-07-05 18:22:16.620 ,2,0,,0,0.,4.8,0.,4.8,,0,0.,4.8,7.,4.8
1979-07-05 18:22:21.420 ,2,0,,0,0.,4.8,0.,4.8,,0,0.,4.8,5.,4.8
1979-07-05 18:22:26.220 ,1,0,,0,0.,4.8,0.,4.8,,0,0.,4.8,5.,4.8
1979-07-05 18:22:31.020 ,1,0,,0,0.,4.8,0.,4.8,,0,0.,4.8,6.,4.8
1979-07-05 18:22:35.820 ,1,0,,0,2.,4.8,0.,4.8,,0,0.,4.8,3.,4.8
1979-07-05 18:22:40.620 ,1,0,,0,13.,4.8,0.,4.8,,0,0.,4.8,2.,4.8
1979-07-05 18:22:45.420 ,1,0,,0,11.,4.8,0.,4.8,,0,0.,4.8,4.,4.8
1979-07-05 18:22:50.220 ,1,0,,0,6.,4.8,0.,4.8,,0,0.,4.8,4.,4.8
1979-07-05 18:22:55.020 ,1,0,,0,11.,4.8,1.,4.8,,0,0.,4.8,5.,4.8
1979-07-05 18:22:59.820 ,1,0,,0,9.,4.8,0.,4.8,,0,0.,4.8,6.,4.8
1979-07-05 18:23:04.620 ,1,0,,0,1.,4.8,0.,4.8,,0,0.,4.8,2.,4.8
1979-07-05 18:23:09.420 ,1,0,,0,0.,4.8,0.,4.8,,0,0.,4.8,4.,4.8
1979-07-05 18:23:14.220 ,0,0,,0,0.,4.8,0.,4.8,,0,0.,4.8,5.,4.8
1979-07-05 18:23:19.020 ,0,0,,0,0.,4.8,0.,4.8,,0,0.,4.8,6.,4.8
1979-07-05 18:23:23.820 ,0,0,,0,1.,4.8,0.,4.8,,0,0.,4.8,7.,4.8
1979-07-05 18:23:28.620 ,0,0,,0,19.,4.8,0.,4.8,,0,0.,4.8,9.,4.8
1979-07-05 18:23:33.420 ,0,0,,0,13.,4.8,3.,4.8,,0,0.,4.8,18.,4.8
1979-07-05 18:23:38.220 ,0,0,,0,17.,4.8,0.,4.8,,0,0.,4.8,6.,4.8
1979-07-05 18:23:43.020 ,0,0,,0,9.,4.8,0.,4.8,,0,0.,4.8,7.,4.8
1979-07-05 18:23:47.820 ,0,0,,0,12.,4.8,0.,4.8,,0,0.,4.8,5.,4.8
1979-07-05 18:23:52.620 ,0,0,,0,0.,4.8,0.,4.8,,0,0.,4.8,9.,4.8
1979-07-05 18:23:57.420 ,0,0,,0,2.,4.8,0.,4.8,,0,0.,4.8,9.,4.8
1979-07-05 18:24:02.220 ,0,0,,0,1.,4.8,0.,4.8,,0,0.,4.8,9.,4.8
1979-07-05 18:24:07.020 ,0,0,,0,0.,4.8,0.,4.8,,0,0.,4.8,9.,4.8
1979-07-05 18:24:11.820 ,0,0,,0,3.,4.8,0.,4.8,,0,0.,4.8,8.,4.8
1979-07-05 18:24:16.620 ,0,0,,0,20.,4.8,3.,4.8,,0,0.,4.8,7.,4.8
1979-07-05 18:24:21.420 ,0,0,,0,22.,4.8,2.,4.8,,0,0.,4.8,7.,4.8
1979-07-05 18:24:26.220 ,0,0,,0,13.,4.8,0.,4.8,,0,0.,4.8,7.,4.8
1979-07-05 18:24:31.020 ,0,0,,0,19.,4.8,0.,4.8,,0,0.,4.8,10.,4.8
1979-07-05 18:24:35.820 ,0,0,,0,13.,4.8,0.,4.8,,0,0.,4.8,5.,4.8
1979-07-05 18:24:40.620 ,0,0,,0,0.,4.8,0.,4.8,,0,0.,4.8,4.,4.8
1979-07-05 18:24:45.420 ,0,0,,0,0.,4.8,0.,4.8,,0,0.,4.8,9.,4.8
1979-07-05 18:24:50.220 ,1,0,,0,0.,4.8,0.,4.8,,0,0.,4.8,4.,4.8
1979-07-05 18:24:55.020 ,1,0,,0,0.,4.8,0.,4.8,,0,0.,4.8,4.,4.8
1979-07-05 18:24:59.820 ,1,0,,0,3.,4.8,0.,4.8,,0,0.,4.8,6.,4.8
1979-07-05 18:25:04.620 ,1,0,,0,7.,4.8,0.,4.8,,0,0.,4.8,5.,4.8
1979-07-05 18:25:09.420 ,1,0,,0,13.,4.8,1.,4.8,,0,0.,4.8,4.,4.8
1979-07-05 18:25:14.220 ,1,0,,0,6.,4.8,1.,4.8,,0,0.,4.8,2.,4.8
1979-07-05 18:25:19.020 ,1,0,,0,7.,4.8,0.,4.8,,0,0.,4.8,4.,4.8
1979-07-05 18:25:23.820 ,1,0,,0,5.,4.8,0.,4.8,,0,0.,4.8,5.,4.8
1979-07-05 18:25:28.620 ,1,0,,0,0.,4.8,0.,4.8,,0,0.,4.8,3.,4.8
1979-07-05 18:25:33.420 ,1,0,,0,0.,4.8,0.,4.8,,0,0.,4.8,1.,4.8
1979-07-05 18:25:38.220 ,2,0,,0,0.,4.8,0.,4.8,,0,0.,4.8,7.,4.8
1979-07-05 18:25:43.020 ,2,0,,0,0.,4.8,0.,4.8,,0,0.,4.8,2.,4.8
1979-07-05 18:25:47.820 ,2,0,,0,4.,4.8,0.,4.8,,0,0.,4.8,6.,4.8
1979-07-05 18:25:52.620 ,2,0,,0,30.,4.8,6.,4.8,,0,0.,4.8,8.,4.8
1979-07-05 18:25:57.420 ,2,0,,0,22.,4.8,2.,4.8,,0,0.,4.8,5.,4.8
1979-07-05 18:26:02.220 ,2,0,,0,21.,4.8,3.,4.8,,0,0.,4.8,6.,4.8
1979-07-05 18:26:07.020 ,2,0,,0,20.,4.8,1.,4.8,,0,0.,4.8,8.,4.8
1979-07-05 18:26:11.820 ,2,0,,0,12.,4.8,1.,4.8,,0,0.,4.8,14.,4.8
1979-07-05 18:26:16.620 ,2,0,,0,0.,4.8,0.,4.8,,0,0.,4.8,9.,4.8
1979-07-05 18:26:21.420 ,2,0,,0,0.,4.8,0.,4.8,,0,0.,4.8,5.,4.8
1979-07-05 18:26:26.220 ,3,0,,0,0.,4.8,0.,4.8,,0,0.,4.8,5.,4.8
1979-07-05 18:26:31.020 ,3,0,,0,0.,4.8,0.,4.8,,0,0.,4.8,11.,4.8
1979-07-05 18:26:35.820 ,3,0,,0,8.,4.8,1.,4.8,,0,0.,4.8,12.,4.8
1979-07-05 18:26:40.620 ,3,0,,0,31.,4.8,3.,4.8,,0,0.,4.8,13.,4.8
1979-07-05 18:26:45.420 ,3,0,,0,26.,4.8,1.,4.8,,0,0.,4.8,16.,4.8
1979-07-05 18:26:50.220 ,3,0,,0,37.,4.8,2.,4.8,,0,0.,4.8,21.,4.8
1979-07-05 18:26:55.020 ,3,0,,0,32.,4.8,0.,4.8,,0,0.,4.8,17.,4.8
1979-07-05 18:26:59.820 ,3,0,,0,23.,4.8,1.,4.8,,0,0.,4.8,14.,4.8
1979-07-05 18:27:04.620 ,3,0,,0,0.,4.8,0.,4.8,,0,0.,4.8,17.,4.8
1979-07-05 18:27:09.420 ,3,0,,0,0.,4.8,0.,4.8,,0,0.,4.8,13.,4.8
1979-07-05 18:27:14.220 ,4,0,,0,0.,4.8,0.,4.8,,0,0.,4.8,15.,4.8
1979-07-05 18:27:19.020 ,4,0,,0,0.,4.8,0.,4.8,,0,0.,4.8,17.,4.8
1979-07-05 18:27:23.820 ,4,0,,0,6.,4.8,1.,4.8,,0,0.,4.8,12.,4.8
1979-07-05 18:27:28.620 ,4,0,,0,27.,4.8,0.,4.8,,0,0.,4.8,18.,4.8
1979-07-05 18:27:33.420 ,4,0,,0,30.,4.8,2.,4.8,,0,0.,4.8,25.,4.8
1979-07-05 18:27:38.220 ,4,0,,0,34.,4.8,2.,4.8,,0,0.,4.8,5.,4.8
1979-07-05 18:27:43.020 ,4,0,,0,28.,4.8,1.,4.8,,0,0.,4.8,15.,4.8
1979-07-05 18:27:47.820 ,4,0,,0,23.,4.8,2.,4.8,,0,0.,4.8,15.,4.8
1979-07-05 18:27:52.620 ,4,0,,0,0.,4.8,0.,4.8,,0,0.,4.8,12.,4.8
1979-07-05 18:27:57.420 ,4,0,,0,0.,4.8,0.,4.8,,0,0.,4.8,15.,4.8
1979-07-05 18:28:02.220 ,5,0,,0,0.,4.8,0.,4.8,,0,0.,4.8,13.,4.8
1979-07-05 18:28:07.020 ,5,0,,0,0.,4.8,0.,4.8,,0,0.,4.8,13.,4.8
1979-07-05 18:28:11.820 ,5,0,,0,5.,4.8,1.,4.8,,0,0.,4.8,17.,4.8
1979-07-05 18:28:16.620 ,5,0,,0,28.,4.8,2.,4.8,,0,0.,4.8,20.,4.8
1979-07-05 18:28:21.420 ,5,0,,0,37.,4.8,2.,4.8,,0,0.,4.8,15.,4.8
1979-07-05 18:28:26.220 ,5,0,,0,37.,4.8,1.,4.8,,0,0.,4.8,17.,4.8
1979-07-05 18:28:31.020 ,5,0,,0,31.,4.8,1.,4.8,,0,0.,4.8,18.,4.8
1979-07-05 18:28:35.820 ,5,0,,0,26.,4.8,5.,4.8,,0,0.,4.8,12.,4.8
1979-07-05 18:28:40.620 ,5,0,,0,0.,4.8,0.,4.8,,0,0.,4.8,15.,4.8
1979-07-05 18:28:45.420 ,5,0,,0,0.,4.8,0.,4.8,,0,0.,4.8,10.,4.8
1979-07-05 18:28:50.220 ,6,0,,0,0.,4.8,0.,4.8,,0,0.,4.8,14.,4.8
1979-07-05 18:28:55.020 ,6,0,,0,1.,4.8,0.,4.8,,0,0.,4.8,10.,4.8
1979-07-05 18:28:59.820 ,6,0,,0,2.,4.8,0.,4.8,,0,0.,4.8,4.,4.8
1979-07-05 18:29:04.620 ,6,0,,0,12.,4.8,1.,4.8,,0,0.,4.8,10.,4.8
1979-07-05 18:29:09.420 ,6,0,,0,19.,4.8,0.,4.8,,0,0.,4.8,6.,4.8
1979-07-05 18:29:14.220 ,6,0,,0,15.,4.8,0.,4.8,,0,1.,4.8,9.,4.8
1979-07-05 18:29:19.020 ,6,0,,0,15.,4.8,1.,4.8,,0,0.,4.8,4.,4.8
1979-07-05 18:29:23.820 ,6,0,,0,10.,4.8,1.,4.8,,0,0.,4.8,5.,4.8
1979-07-05 18:29:28.620 ,6,0,,0,0.,4.8,0.,4.8,,0,0.,4.8,3.,4.8
1979-07-05 18:29:33.420 ,6,0,,0,0.,4.8,0.,4.8,,0,0.,4.8,7.,4.8
1979-07-05 18:29:38.220 ,7,0,,0,0.,4.8,0.,4.8,,0,0.,4.8,13.,4.8
1979-07-05 18:29:43.020 ,7,0,,0,0.,4.8,0.,4.8,,0,0.,4.8,3.,4.8
1979-07-05 18:29:47.820 ,7,0,,0,4.,4.8,0.,4.8,,0,0.,4.8,0.,4.8
1979-07-05 18:29:52.620 ,7,0,,0,12.,4.8,0.,4.8,,0,0.,4.8,1.,4.8